| time (UTC) | temp F | wind direction | speed MPH | gust MPH | rain 1hr in | rain 24hr in | rain mn in | humidity % | barometer mb |
| 20260504034317 | 53 | 65 | 0.0 | 1.0 | 0.04 | 1.61 | 0.01 | 94 | 1013.2 |
| 20260504033833 | 53 | 65 | 0.0 | 2.0 | 0.04 | 1.61 | 0.01 | 94 | 1013.2 |
| 20260504033331 | 53 | 65 | 1.0 | 3.0 | 0.04 | 1.61 | 0.01 | 94 | 1013.2 |
| 20260504032826 | 53 | 45 | 1.0 | 2.0 | 0.00 | 1.57 | 0.00 | 94 | 1013.3 |
| 20260504032342 | 53 | 9 | 1.0 | 2.0 | 0.00 | 1.57 | 0.00 | 94 | 1013.2 |
| 20260504031816 | 53 | 9 | 0.0 | 2.0 | 0.00 | 1.57 | 0.00 | 94 | 1013.2 |
| 20260504031314 | 53 | 9 | 0.0 | 3.0 | 0.00 | 1.57 | 0.00 | 94 | 1013.2 |
| 20260504030829 | 53 | 9 | 2.0 | 3.0 | 0.00 | 1.57 | 0.00 | 93 | 1013.2 |
| 20260504030326 | 53 | 9 | 1.0 | 1.0 | 0.00 | 1.57 | 0.00 | 93 | 1013.2 |
| 20260504025841 | 53 | 9 | 0.0 | 1.0 | 0.00 | 1.57 | 0.00 | 93 | 1013.2 |
| 20260504025338 | 53 | 9 | 0.0 | 1.0 | 0.00 | 1.57 | 0.00 | 93 | 1013.2 |
| 20260504024833 | 53 | 9 | 0.0 | 0.0 | 0.00 | 1.57 | 0.00 | 93 | 1013.1 |
| 20260504024329 | 53 | 9 | 0.0 | 2.0 | 0.00 | 1.57 | 0.00 | 93 | 1013.1 |
| 20260504023824 | 54 | 9 | 1.0 | 2.0 | 0.00 | 1.57 | 0.00 | 93 | 1013.0 |
| 20260504023321 | 54 | 9 | 1.0 | 3.0 | 0.00 | 1.57 | 0.00 | 93 | 1013.0 |
| 20260504022834 | 54 | 9 | 2.0 | 3.0 | 0.00 | 1.57 | 0.00 | 93 | 1013.1 |
| 20260504022349 | 54 | 271 | 2.0 | 3.0 | 0.00 | 1.57 | 0.00 | 93 | 1013.1 |
| 20260504021843 | 54 | 252 | 1.0 | 2.0 | 0.00 | 1.57 | 0.00 | 93 | 1013.1 |
| 20260504021338 | 54 | 252 | 1.0 | 2.0 | 0.00 | 1.57 | 0.00 | 93 | 1013.1 |
| 20260504020832 | 54 | 252 | 1.0 | 3.0 | 0.00 | 1.57 | 0.00 | 93 | 1013.0 |
| 20260504020331 | 54 | 252 | 0.0 | 5.0 | 0.00 | 1.57 | 0.00 | 93 | 1013.1 |
| 20260504015826 | 54 | 254 | 2.0 | 5.0 | 0.00 | 1.57 | 0.00 | 93 | 1013.1 |
| 20260504015326 | 54 | 248 | 1.0 | 4.0 | 0.00 | 1.57 | 0.00 | 94 | 1013.1 |
| 20260504014821 | 54 | 265 | 1.0 | 5.0 | 0.00 | 1.57 | 0.00 | 94 | 1013.1 |
| 20260504014339 | 54 | 268 | 1.0 | 5.0 | 0.00 | 1.57 | 0.00 | 94 | 1013.1 |
| 20260504013814 | 53 | 255 | 1.0 | 3.0 | 0.00 | 1.57 | 0.00 | 94 | 1013.1 |
| 20260504013358 | 53 | 250 | 0.0 | 2.0 | 0.00 | 1.57 | 0.00 | 94 | 1013.1 |
| 20260504012852 | 53 | 250 | 1.0 | 4.0 | 0.00 | 1.57 | 0.00 | 94 | 1013.1 |
| 20260504012328 | 53 | 247 | 1.0 | 4.0 | 0.00 | 1.57 | 0.00 | 94 | 1013.2 |
| 20260504011824 | 53 | 11 | 1.0 | 2.0 | 0.00 | 1.57 | 0.00 | 94 | 1013.2 |
| 20260504011322 | 52 | 126 | 1.0 | 3.0 | 0.00 | 1.57 | 0.00 | 94 | 1013.3 |
| 20260504010818 | 52 | 120 | 2.0 | 3.0 | 0.00 | 1.57 | 0.00 | 94 | 1013.4 |
| 20260504010315 | 52 | 240 | 1.0 | 3.0 | 0.00 | 1.57 | 0.00 | 94 | 1013.4 |
| 20260504005858 | 52 | 217 | 0.0 | 3.0 | 0.00 | 1.57 | 0.00 | 94 | 1013.3 |
| 20260504005355 | 52 | 221 | 0.0 | 2.0 | 0.00 | 1.57 | 0.00 | 94 | 1013.3 |
| 20260504004851 | 52 | 221 | 1.0 | 2.0 | 0.00 | 1.57 | 0.00 | 93 | 1013.3 |
| 20260504004328 | 52 | 215 | 1.0 | 2.0 | 0.00 | 1.57 | 0.00 | 93 | 1013.3 |
| 20260504003823 | 52 | 254 | 0.0 | 3.0 | 0.00 | 1.57 | 0.00 | 94 | 1013.3 |
| 20260504003341 | 52 | 227 | 1.0 | 3.0 | 0.00 | 1.57 | 0.00 | 94 | 1013.4 |
| 20260504002816 | 52 | 243 | 0.0 | 2.0 | 0.00 | 1.57 | 0.00 | 93 | 1013.4 |
| 20260504002313 | 52 | 243 | 0.0 | 3.0 | 0.00 | 1.57 | 0.00 | 93 | 1013.4 |
| 20260504001825 | 52 | 206 | 0.0 | 2.0 | 0.00 | 1.57 | 0.00 | 93 | 1013.5 |
| 20260504001320 | 52 | 182 | 0.0 | 2.0 | 0.00 | 1.57 | 0.00 | 93 | 1013.3 |
| 20260504000815 | 52 | 182 | 0.0 | 2.0 | 0.00 | 1.57 | 0.00 | 93 | 1013.4 |
| 20260504000313 | 52 | 182 | 1.0 | 1.0 | 0.00 | 1.57 | 0.00 | 93 | 1013.3 |
| 20260503235826 | 52 | 182 | 0.0 | 1.0 | 0.00 | 1.57 | 0.00 | 93 | 1013.4 |
| 20260503235323 | 52 | 182 | 0.0 | 2.0 | 0.00 | 1.57 | 0.00 | 93 | 1013.5 |
| 20260503234818 | 52 | 182 | 0.0 | 1.0 | 0.00 | 1.57 | 0.00 | 93 | 1013.4 |
| 20260503234317 | 52 | 182 | 0.0 | 1.0 | 0.00 | 1.57 | 0.00 | 93 | 1013.4 |
| 20260503233830 | 53 | 182 | 0.0 | 3.0 | 0.00 | 1.57 | 0.00 | 93 | 1013.4 |
| 20260503233329 | 53 | 182 | 1.0 | 3.0 | 0.00 | 1.57 | 0.00 | 93 | 1013.4 |
| 20260503232846 | 53 | 181 | 0.0 | 4.0 | 0.00 | 1.57 | 0.00 | 93 | 1013.4 |
| 20260503232342 | 53 | 181 | 2.0 | 4.0 | 0.00 | 1.57 | 0.00 | 93 | 1013.3 |
| 20260503231832 | 53 | 181 | 1.0 | 2.0 | 0.00 | 1.57 | 0.00 | 93 | 1013.4 |
| 20260503231330 | 53 | 181 | 0.0 | 0.0 | 0.00 | 1.57 | 0.00 | 93 | 1013.3 |
| 20260503230826 | 53 | 181 | 0.0 | 0.0 | 0.00 | 1.57 | 0.00 | 93 | 1013.2 |
| 20260503230322 | 53 | 181 | 0.0 | 1.0 | 0.00 | 1.57 | 0.00 | 93 | 1013.2 |
| 20260503225816 | 53 | 181 | 0.0 | 1.0 | 0.00 | 1.57 | 0.00 | 93 | 1013.3 |
| 20260503225400 | 53 | 181 | 0.0 | 0.0 | 0.00 | 1.57 | 0.00 | 92 | 1013.3 |
| 20260503224833 | 53 | 181 | 0.0 | 0.0 | 0.00 | 1.57 | 0.00 | 92 | 1013.4 |
| 20260503224330 | 53 | 181 | 0.0 | 0.0 | 0.00 | 1.57 | 0.00 | 92 | 1013.4 |
| 20260503223825 | 53 | 181 | 0.0 | 0.0 | 0.00 | 1.57 | 0.00 | 92 | 1013.5 |
| 20260503223338 | 53 | 181 | 0.0 | 0.0 | 0.00 | 1.57 | 0.00 | 92 | 1013.5 |
| 20260503222832 | 53 | 181 | 0.0 | 0.0 | 0.00 | 1.57 | 0.00 | 92 | 1013.5 |
| 20260503222329 | 54 | 180 | 0.0 | 0.0 | 0.00 | 1.57 | 0.00 | 92 | 1013.5 |
| 20260503221826 | 54 | 180 | 0.0 | 1.0 | 0.00 | 1.57 | 0.00 | 91 | 1013.5 |
| 20260503221325 | 54 | 180 | 0.0 | 1.0 | 0.00 | 1.57 | 0.00 | 91 | 1013.5 |
| 20260503220820 | 54 | 180 | 0.0 | 2.0 | 0.00 | 1.57 | 0.00 | 91 | 1013.5 |
| 20260503220338 | 54 | 181 | 0.0 | 4.0 | 0.00 | 1.57 | 0.00 | 91 | 1013.5 |
| 20260503215824 | 54 | 180 | 2.0 | 5.0 | 0.00 | 1.57 | 0.31 | 91 | 1013.6 |
| 20260503215323 | 54 | 178 | 2.0 | 5.0 | 0.00 | 1.57 | 0.31 | 91 | 1013.5 |
| 20260503214817 | 54 | 201 | 2.0 | 6.0 | 0.00 | 1.57 | 0.31 | 91 | 1013.5 |
| 20260503214337 | 54 | 190 | 2.0 | 5.0 | 0.00 | 1.57 | 0.31 | 91 | 1013.5 |
| 20260503213831 | 55 | 188 | 2.0 | 5.0 | 0.00 | 1.57 | 0.31 | 91 | 1013.4 |
| 20260503213330 | 54 | 176 | 3.0 | 5.0 | 0.00 | 1.57 | 0.31 | 91 | 1013.4 |
| 20260503212826 | 55 | 180 | 1.0 | 6.0 | 0.00 | 1.57 | 0.31 | 91 | 1013.3 |
| 20260503212324 | 55 | 172 | 3.0 | 9.0 | 0.00 | 1.57 | 0.31 | 90 | 1013.4 |
| 20260503211817 | 55 | 202 | 4.0 | 9.0 | 0.00 | 1.57 | 0.31 | 90 | 1013.4 |
| 20260503211314 | 55 | 208 | 2.0 | 9.0 | 0.00 | 1.57 | 0.31 | 90 | 1013.3 |
| 20260503210829 | 55 | 192 | 5.0 | 9.0 | 0.00 | 1.57 | 0.31 | 90 | 1013.2 |
| 20260503210328 | 55 | 182 | 3.0 | 6.0 | 0.00 | 1.57 | 0.31 | 91 | 1013.3 |
| 20260503205823 | 55 | 198 | 4.0 | 9.0 | 0.00 | 1.57 | 0.31 | 91 | 1013.2 |
| 20260503205322 | 54 | 187 | 4.0 | 9.0 | 0.00 | 1.57 | 0.31 | 91 | 1013.3 |
| 20260503204818 | 54 | 190 | 5.0 | 9.0 | 0.00 | 1.57 | 0.31 | 92 | 1013.2 |
| 20260503204316 | 54 | 193 | 2.0 | 6.0 | 0.04 | 1.57 | 0.31 | 91 | 1013.2 |
| 20260503203831 | 54 | 191 | 4.0 | 6.0 | 0.04 | 1.57 | 0.31 | 91 | 1013.1 |
| 20260503203329 | 54 | 178 | 4.0 | 5.0 | 0.04 | 1.57 | 0.31 | 91 | 1013.2 |
| 20260503202823 | 54 | 190 | 1.0 | 5.0 | 0.04 | 1.57 | 0.31 | 92 | 1013.1 |
| 20260503202323 | 54 | 190 | 3.0 | 5.0 | 0.04 | 1.57 | 0.31 | 92 | 1013.1 |
| 20260503201819 | 54 | 188 | 2.0 | 6.0 | 0.04 | 1.57 | 0.31 | 92 | 1013.1 |
| 20260503201317 | 53 | 165 | 3.0 | 6.0 | 0.04 | 1.57 | 0.31 | 92 | 1013.1 |
| 20260503200831 | 53 | 180 | 2.0 | 3.0 | 0.04 | 1.57 | 0.31 | 91 | 1013.0 |
| 20260503200332 | 54 | 180 | 1.0 | 3.0 | 0.04 | 1.57 | 0.31 | 92 | 1013.0 |
| 20260503195829 | 54 | 180 | 0.0 | 3.0 | 0.04 | 1.57 | 0.31 | 91 | 1013.0 |
| 20260503195329 | 54 | 180 | 1.0 | 3.0 | 0.04 | 1.57 | 0.31 | 91 | 1013.0 |
| 20260503194822 | 55 | 180 | 0.0 | 2.0 | 0.04 | 1.57 | 0.31 | 91 | 1013.0 |
| 20260503194342 | 55 | 180 | 1.0 | 3.0 | 0.00 | 1.54 | 0.31 | 91 | 1012.9 |
| 20260503193837 | 55 | 180 | 2.0 | 3.0 | 0.00 | 1.54 | 0.31 | 90 | 1012.8 |
| 20260503193315 | 56 | 180 | 1.0 | 3.0 | 0.00 | 1.54 | 0.31 | 90 | 1012.8 |
| 20260503192854 | 56 | 172 | 2.0 | 5.0 | 0.00 | 1.54 | 0.31 | 89 | 1012.7 |
| 20260503192351 | 57 | 169 | 3.0 | 7.0 | 0.04 | 1.54 | 0.31 | 89 | 1012.7 |
| 20260503191827 | 57 | 178 | 3.0 | 9.0 | 0.04 | 1.54 | 0.31 | 89 | 1012.8 |
| 20260503191346 | 57 | 190 | 6.0 | 9.0 | 0.08 | 1.54 | 0.31 | 89 | 1012.7 |
| 20260503190818 | 57 | 157 | 6.0 | 9.0 | 0.08 | 1.54 | 0.31 | 90 | 1012.6 |
| 20260503190337 | 58 | 173 | 4.0 | 9.0 | 0.08 | 1.54 | 0.31 | 90 | 1012.7 |
| 20260503185825 | 58 | 183 | 3.0 | 6.0 | 0.08 | 1.54 | 0.31 | 89 | 1012.8 |
| 20260503185322 | 58 | 197 | 2.0 | 3.0 | 0.08 | 1.54 | 0.31 | 89 | 1012.8 |
| 20260503184837 | 58 | 197 | 2.0 | 4.0 | 0.08 | 1.54 | 0.31 | 89 | 1012.7 |
| 20260503184335 | 58 | 197 | 3.0 | 4.0 | 0.08 | 1.54 | 0.31 | 88 | 1012.7 |
| 20260503183850 | 59 | 202 | 2.0 | 7.0 | 0.08 | 1.54 | 0.31 | 88 | 1012.6 |
| 20260503183327 | 59 | 181 | 4.0 | 9.0 | 0.08 | 1.54 | 0.31 | 87 | 1012.5 |
| 20260503182841 | 59 | 143 | 5.0 | 11.0 | 0.08 | 1.54 | 0.31 | 86 | 1012.3 |
| 20260503182319 | 59 | 145 | 7.0 | 13.0 | 0.04 | 1.50 | 0.30 | 85 | 1012.1 |
| 20260503181834 | 60 | 173 | 8.0 | 13.0 | 0.04 | 1.50 | 0.30 | 84 | 1011.8 |
| 20260503181333 | 60 | 148 | 8.0 | 16.0 | 0.00 | 1.46 | 0.29 | 83 | 1012.1 |
| 20260503180849 | 60 | 167 | 7.0 | 17.0 | 0.00 | 1.46 | 0.29 | 82 | 1012.3 |
| 20260503180327 | 61 | 155 | 6.0 | 9.0 | 0.00 | 1.46 | 0.29 | 82 | 1012.3 |
| 20260503175816 | 61 | 170 | 5.0 | 9.0 | 0.00 | 1.46 | 0.29 | 81 | 1012.3 |
| 20260503175335 | 61 | 137 | 5.0 | 9.0 | 0.00 | 1.46 | 0.29 | 81 | 1012.2 |
| 20260503174849 | 61 | 143 | 5.0 | 10.0 | 0.00 | 1.46 | 0.29 | 81 | 1012.2 |
| 20260503174327 | 61 | 146 | 6.0 | 10.0 | 0.00 | 1.46 | 0.29 | 81 | 1012.3 |
| 20260503173822 | 61 | 152 | 7.0 | 12.0 | 0.00 | 1.46 | 0.29 | 80 | 1012.3 |
| 20260503173319 | 62 | 162 | 5.0 | 12.0 | 0.00 | 1.46 | 0.29 | 81 | 1012.3 |
| 20260503172815 | 62 | 168 | 7.0 | 11.0 | 0.00 | 1.46 | 0.29 | 81 | 1012.2 |
| 20260503172333 | 62 | 150 | 6.0 | 10.0 | 0.00 | 1.46 | 0.29 | 81 | 1012.2 |
| 20260503171830 | 61 | 163 | 6.0 | 10.0 | 0.00 | 1.46 | 0.29 | 81 | 1012.3 |
| 20260503171326 | 61 | 154 | 5.0 | 9.0 | 0.00 | 1.46 | 0.29 | 82 | 1012.3 |
| 20260503170822 | 61 | 146 | 4.0 | 7.0 | 0.00 | 1.46 | 0.29 | 82 | 1012.2 |
| 20260503170322 | 61 | 141 | 5.0 | 7.0 | 0.00 | 1.46 | 0.29 | 81 | 1012.2 |
| 20260503150822 | 63 | 141 | 9.0 | 15.0 | 0.00 | 1.46 | 0.29 | 82 | 1012.6 |
| 20260503150318 | 62 | 153 | 8.0 | 13.0 | 0.00 | 1.46 | 0.29 | 82 | 1012.7 |
| 20260503131353 | 58 | 152 | 6.0 | 15.0 | 0.00 | 1.46 | 0.29 | 88 | 1013.8 |
| 20260503130827 | 59 | 152 | 10.0 | 15.0 | 0.00 | 1.46 | 0.29 | 87 | 1013.7 |
| 20260503130325 | 59 | 187 | 4.0 | 9.0 | 0.00 | 1.46 | 0.29 | 89 | 1013.8 |
| 20260503110814 | 56 | 150 | 8.0 | 12.0 | 0.00 | 1.46 | 0.29 | 91 | 1014.2 |
| 20260503110332 | 57 | 184 | 7.0 | 14.0 | 0.00 | 1.46 | 0.29 | 91 | 1014.2 |
| 20260503090326 | 54 | 160 | 5.0 | 8.0 | 0.31 | 1.34 | 0.27 | 93 | 1014.2 |
| 20260503081334 | 54 | 173 | 4.0 | 9.0 | 0.47 | 1.06 | 0.21 | 92 | 1014.1 |
| 20260503080827 | 55 | 199 | 4.0 | 9.0 | 0.43 | 1.02 | 0.20 | 93 | 1014.1 |
| 20260503080325 | 55 | 140 | 6.0 | 9.0 | 0.43 | 0.98 | 0.20 | 93 | 1014.1 |
| 20260503072833 | 56 | 220 | 1.0 | 3.0 | 0.12 | 0.63 | 0.13 | 93 | 1013.9 |
| 20260503072332 | 56 | 220 | 2.0 | 3.0 | 0.16 | 0.59 | 0.12 | 93 | 1013.9 |
| 20260503071827 | 56 | 220 | 2.0 | 2.0 | 0.28 | 0.59 | 0.12 | 93 | 1013.9 |
| 20260503071327 | 56 | 221 | 1.0 | 2.0 | 0.31 | 0.59 | 0.12 | 93 | 1013.9 |
| 20260503070822 | 55 | 221 | 1.0 | 2.0 | 0.31 | 0.59 | 0.12 | 93 | 1013.8 |
| 20260503070321 | 55 | 221 | 1.0 | 2.0 | 0.31 | 0.55 | 0.11 | 93 | 1013.8 |
| 20260503060329 | 54 | 210 | 0.0 | 2.0 | 0.24 | 0.24 | 0.05 | 92 | 1013.7 |
| 20260503054821 | 53 | 210 | 0.0 | 4.0 | 0.12 | 0.12 | 0.02 | 92 | 1013.7 |
| 20260503054317 | 53 | 210 | 2.0 | 5.0 | 0.08 | 0.08 | 0.02 | 92 | 1013.7 |
| 20260503053833 | 53 | 202 | 1.0 | 6.0 | 0.08 | 0.08 | 0.02 | 93 | 1013.7 |
| 20260503053332 | 53 | 200 | 3.0 | 6.0 | 0.04 | 0.04 | 0.01 | 93 | 1013.7 |
| 20260503052829 | 52 | 207 | 4.0 | 6.0 | 0.04 | 0.04 | 0.01 | 92 | 1013.7 |
| 20260503052348 | 53 | 41 | 1.0 | 2.0 | 0.00 | 0.00 | 0.00 | 92 | 1013.4 |
| 20260503051822 | 52 | 41 | 0.0 | 1.0 | 0.00 | 0.00 | 0.00 | 93 | 1013.2 |
| 20260503051318 | 52 | 41 | 0.0 | 0.0 | 0.00 | 0.00 | 0.00 | 92 | 1013.2 |
| 20260503050815 | 52 | 41 | 0.0 | 0.0 | 0.00 | 0.00 | 0.00 | 92 | 1013.2 |
| 20260503050333 | 52 | 41 | 0.0 | 0.0 | 0.00 | 0.00 | 0.00 | 92 | 1013.1 |
| 20260503045847 | 52 | 41 | 0.0 | 1.0 | 0.00 | 0.00 | 0.00 | 92 | 1013.1 |
| 20260503045326 | 52 | 40 | 0.0 | 1.0 | 0.00 | 0.00 | 0.00 | 92 | 1013.1 |
| 20260503044820 | 52 | 40 | 0.0 | 0.0 | 0.00 | 0.00 | 0.00 | 93 | 1013.1 |
| 20260503044340 | 52 | 40 | 0.0 | 0.0 | 0.00 | 0.00 | 0.00 | 93 | 1013.0 |
| 20260503043835 | 52 | 40 | 0.0 | 2.0 | 0.00 | 0.00 | 0.00 | 93 | 1013.0 |
| 20260503043333 | 51 | 40 | 1.0 | 2.0 | 0.00 | 0.00 | 0.00 | 93 | 1013.0 |
| 20260503042828 | 51 | 40 | 0.0 | 1.0 | 0.00 | 0.00 | 0.00 | 93 | 1013.0 |
| 20260503042328 | 51 | 40 | 1.0 | 2.0 | 0.00 | 0.00 | 0.00 | 93 | 1013.0 |
| 20260503041838 | 51 | 40 | 1.0 | 2.0 | 0.00 | 0.00 | 0.00 | 93 | 1013.0 |
| 20260503041315 | 51 | 40 | 0.0 | 2.0 | 0.00 | 0.00 | 0.00 | 92 | 1013.0 |
| 20260503040831 | 51 | 40 | 1.0 | 2.0 | 0.00 | 0.00 | 0.00 | 92 | 1013.0 |
| 20260503040328 | 51 | 40 | 0.0 | 0.0 | 0.00 | 0.00 | 0.00 | 92 | 1013.0 |
| 20260503035824 | 51 | 39 | 0.0 | 0.0 | 0.00 | 0.00 | 0.00 | 92 | 1013.1 |
| 20260503035322 | 50 | 39 | 0.0 | 0.0 | 0.00 | 0.00 | 0.00 | 92 | 1013.3 |
| 20260503034837 | 50 | 39 | 0.0 | 0.0 | 0.00 | 0.00 | 0.00 | 92 | 1013.2 |